STARLINK-5747 (55574 NORAD) Tracking and Keplerian Element Data

This shows tracking and keplerian element data for the satellite.

Feedback or suggestion? Click here.




ElementValue
Catalog55574
NameSTARLINK-5747
Epoch Orbit654
Epoch Day85.25001157
Epoch Year2023
RAAN110.2013
Inclination42.9965
Eccentricity0.0001195
Argument of Perigee259.146
Mean Anonmoly18.7236
Mean Motion15.06546041
Decay Rate-0.01211896
L11 55574U 23020F 23085.25001157 -.01211896 00000+0 -88028-1 0 9998
L22 55574 42.9965 110.2013 0001195 259.1460 18.7236 15.06546041 6548



Live tracking and technical data element details for STARLINK-5747 (NORAD 55574). STARLINK-5747 can be tracked NOW for your location showing map with azimuth and elevation plus other details from your city location.







IsCatalogInMostPopularTable: catalog: 55574, numindb: -1

Insert: records affected: 1


GetName: 55574 STARLINK-5747

Hit Count: inserted at: Tue, 28 Mar 2023 03:15:20 GMT